Location: 22
(39.7117°N, 89.5929°W)
Time: 08:23:59
(UTC-05:00)

Vanguard 1 Rocket - Pass Details

Date: 14 February 2023
Orbit: 652 x 4223 km, 34.3° (Epoch: 24 March)

Event Time Altitude Azimuth Distance (km) Brightness Sun altitude
Rises 10:29:32 0° 250° (WSW) 3,412 10.3 32.1°
Reaches altitude 10° 10:31:34 10° 246° (WSW) 2,681 9.9 32.3°
Maximum altitude 10:37:49 59° 168° (SSE) 1,552 9.9 32.9°
Drops below altitude 10° 10:49:41 10° 93° (E) 4,928 11.6 33.9°
Sets 10:54:52 0° 91° (E) 6,535 12.0 34.3°
